Simultaneous Nadir Overpasses (SNOs) Predictions

Prediction of SNOs between AQUA and METOP-C Satellite Orbit:

Table of predicted SNOs for the next 14.0 days since TLE Epoch: 1/21/2023
Index Date (AQUA) Time (AQUA) Lat,Lon (AQUA) SZA (AQUA ) Date (METOP-C) Time (METOP-C) Lat,Lon (METOP-C) SZA (METOP-C ) Distance(km) Time Diff (sec)
1 01/22/2023 07:09:59 73.74, 68.80 93.46 01/22/2023 07:08:51 73.67, 66.76 93.48 64.07 68
2 01/22/2023 07:59:33 -74.22,-124.66 86.03 01/22/2023 07:59:21 -74.23,-124.54 86.02 3.66 12
3 01/22/2023 08:49:00 74.25, 42.91 94.00 01/22/2023 08:50:01 74.25, 42.83 93.99 2.61 61
4 01/25/2023 01:53:30 -74.15, -32.95 86.76 01/25/2023 01:52:25 -74.15, -33.01 86.74 1.90 65
5 01/25/2023 02:42:58 74.23, 134.49 93.33 01/25/2023 02:43:04 74.21, 134.46 93.31 2.97 6
6 01/25/2023 03:32:28 -74.50, -58.52 86.39 01/25/2023 03:33:39 -74.53, -57.39 86.41 33.66 71
7 01/27/2023 20:36:55 74.19,-133.89 92.60 01/27/2023 20:36:07 74.20,-133.82 92.61 2.01 48
8 01/27/2023 21:26:21 -74.26, 33.60 87.34 01/27/2023 21:26:48 -74.24, 33.60 87.37 3.07 27
9 01/30/2023 15:20:16 -74.21, 125.26 88.12 01/30/2023 15:19:51 -74.22, 125.31 88.11 1.99 25
10 01/30/2023 16:09:43 74.25, -67.19 91.91 01/30/2023 16:10:30 74.26, -67.28 91.92 2.70 47
11 02/02/2023 09:14:09 -74.14,-143.03 88.97 02/02/2023 09:12:56 -74.10,-143.26 88.99 8.58 73
12 02/02/2023 10:03:37 74.24, 24.39 91.13 02/02/2023 10:03:33 74.22, 24.37 91.11 2.07 4



Historial Predications of SNOs between AQUA and METOP-C
